Weather History for Westhampton Beach, NY

Change the Weather History Date:

Thursday, November 7, 2013

  Actual Average Record
Temperature  
Mean Temperature 54 °F -  
Max Temperature 62 °F 52 °F 63 °F (2001)
Min Temperature 44 °F 33 °F 19 °F (2002)
Degree Days  
Heating Degree Days 12    
Growing Degree Days 4 (Base 50)    
Moisture  
Dew Point 55 °F    
Average Humidity 91    
Maximum Humidity 100    
Minimum Humidity 65    
Precipitation  
Precipitation 0.31 in - - ()
Sea Level Pressure  
Sea Level Pressure 29.88 in    
Wind  
Wind Speed 10 mph (WSW)    
Max Wind Speed 18 mph    
Max Gust Speed 25 mph    
Visibility 6 miles    
Events Fog , Rain    
Averages and records for this station are not official NWS values.
T = Trace of Precipitation, MM = Missing Value Source: NWS Daily Summary

Daily Weather History Graph

Daily Weather History Graph

Search for Another Location

Airport:

Trip Planner

Search our weather history database for the weather conditions in past years. The results will help you decide how hot, cold, wet, or windy it might be!

Date:

Astronomy

Nov. 07, 2013 Rise Set
Actual Time 6:28 AM EST 4:39 PM EST
Civil Twilight 5:59 AM EST 5:08 PM EST
Nautical Twilight 5:26 AM EST 5:41 PM EST
Astronomical Twilight 4:54 AM EST 6:13 PM EST
Moon 10:35 AM EST (11/7) 8:47 PM EST (11/7)
Length of Visible Light 11h 08m
Length of Day
10h 11m
Waxing Crescent, 22% of the Moon is Illuminated
Nov 7
Waxing Crescent
Nov 10
First Quarter
Nov 17
Full
Nov 25
Last Quarter
Dec 2
New

Hourly Weather History & Observations

Time (EST) Temp. Windchill Dew Point Humidity Pressure Visibility Wind Dir Wind Speed Gust Speed Precip Events Conditions
12:38 AM 59.0 °F - 55.4 °F 88% 30.09 in 10.0 mi SSW 8.1 mph - N/A   Overcast
12:53 AM 59.0 °F - 55.9 °F 90% 30.09 in 10.0 mi SSW 6.9 mph - N/A   Overcast
1:14 AM 60.8 °F - 55.4 °F 82% 30.07 in 10.0 mi SSW 6.9 mph - N/A   Overcast
1:53 AM 60.1 °F - 57.0 °F 90% 30.05 in 6.0 mi SSW 9.2 mph - 0.00 in Rain Light Rain
2:38 AM 60.8 °F - 57.2 °F 88% 30.04 in 9.0 mi SSW 15.0 mph 24.2 mph 0.00 in   Overcast
2:50 AM 59.0 °F - 57.2 °F 94% 30.02 in 6.0 mi SSW 11.5 mph 20.7 mph 0.00 in Rain Light Rain
2:53 AM 59.0 °F - 57.0 °F 93% 30.02 in 5.0 mi SSW 10.4 mph 20.7 mph 0.01 in Rain Light Rain
3:16 AM 59.0 °F - 57.2 °F 94% 30.01 in 9.0 mi SSW 12.7 mph 17.3 mph 0.00 in Rain Light Rain
3:53 AM 60.1 °F - 57.9 °F 93% 29.99 in 8.0 mi SSW 13.8 mph 19.6 mph 0.00 in Rain Light Rain
4:53 AM 60.1 °F - 59.0 °F 96% 29.95 in 9.0 mi SSW 11.5 mph 20.7 mph 0.02 in Rain Light Rain
5:53 AM 61.0 °F - 60.1 °F 97% 29.92 in 8.0 mi SSW 11.5 mph 20.7 mph 0.00 in Rain Light Rain
6:15 AM 60.8 °F - 60.8 °F 100% 29.92 in 2.5 mi SW 10.4 mph 17.3 mph 0.01 in Rain Light Rain
6:48 AM 60.8 °F - 59.0 °F 94% 29.91 in 4.0 mi SW 10.4 mph - 0.02 in Rain Light Rain
6:53 AM 60.1 °F - 59.0 °F 96% 29.91 in 5.0 mi SW 12.7 mph 19.6 mph 0.02 in Rain Light Rain
7:08 AM 60.8 °F - 60.8 °F 100% 29.90 in 1.0 mi SW 11.5 mph 20.7 mph 0.00 in Rain Light Rain
7:53 AM 61.0 °F - 60.1 °F 97% 29.90 in 1.0 mi SW 11.5 mph 19.6 mph 0.00 in   Overcast
8:04 AM 60.8 °F - 60.8 °F 100% 29.90 in 3.0 mi SW 12.7 mph 18.4 mph N/A   Overcast
8:53 AM 62.1 °F - 61.0 °F 96% 29.88 in 10.0 mi SW 10.4 mph 19.6 mph N/A   Overcast
9:16 AM 60.8 °F - 60.8 °F 100% 29.87 in 1.8 mi SW 12.7 mph 21.9 mph N/A   Overcast
9:40 AM 60.8 °F - 60.8 °F 100% 29.87 in 0.5 mi SW 11.5 mph 19.6 mph N/A Fog Fog
9:53 AM 61.0 °F - 60.1 °F 97% 29.86 in 1.2 mi WSW 15.0 mph 21.9 mph N/A   Overcast
9:57 AM 60.8 °F - 60.8 °F 100% 29.87 in 3.0 mi SW 11.5 mph 21.9 mph N/A   Overcast
10:53 AM 61.0 °F - 59.0 °F 93% 29.83 in 10.0 mi SW 9.2 mph 18.4 mph 0.01 in Rain Light Rain
11:38 AM 60.8 °F - 59.0 °F 94% 29.80 in 9.0 mi WSW 13.8 mph - 0.01 in Rain Light Rain
11:50 AM 60.8 °F - 59.0 °F 94% 29.79 in 5.0 mi WSW 13.8 mph - 0.02 in Rain Light Rain
11:53 AM 61.0 °F - 59.0 °F 93% 29.79 in 5.0 mi WSW 11.5 mph - 0.02 in Rain Light Rain
12:22 PM 60.8 °F - 59.0 °F 94% 29.78 in 3.0 mi WSW 10.4 mph - 0.04 in Rain Light Rain
12:53 PM 60.1 °F - 57.9 °F 93% 29.76 in 5.0 mi WSW 9.2 mph - 0.06 in Rain Light Rain
1:03 PM 60.8 °F - 57.2 °F 88% 29.76 in 2.5 mi WSW 8.1 mph - 0.02 in Rain Rain
1:08 PM 59.0 °F - 57.2 °F 94% 29.77 in 3.0 mi WSW 8.1 mph - 0.02 in Rain Light Rain
1:23 PM 59.0 °F - 57.2 °F 94% 29.77 in 3.0 mi WSW 6.9 mph - 0.05 in Rain Light Rain
1:30 PM 59.0 °F - 57.2 °F 94% 29.76 in 2.5 mi WSW 6.9 mph - 0.06 in Rain Light Rain
1:53 PM 59.0 °F - 57.0 °F 93% 29.75 in 5.0 mi SW 6.9 mph - 0.08 in Rain Light Rain
2:03 PM 59.0 °F - 57.2 °F 94% 29.74 in 2.0 mi WSW 6.9 mph - 0.01 in Rain Light Rain
2:53 PM 59.0 °F - 57.0 °F 93% 29.76 in 2.0 mi WNW 10.4 mph - 0.04 in Rain Rain
2:58 PM 59.0 °F - 57.2 °F 94% 29.76 in 4.0 mi West 10.4 mph - 0.01 in Rain Light Rain
3:53 PM 55.0 °F - 52.0 °F 89% 29.78 in 10.0 mi West 5.8 mph - 0.02 in   Overcast
4:53 PM 54.0 °F - 50.0 °F 86% 29.78 in 10.0 mi NNW 8.1 mph - 0.02 in Rain Light Rain
5:29 PM 51.8 °F - 50.0 °F 94% 29.81 in 10.0 mi NNW 9.2 mph - 0.01 in   Overcast
5:46 PM 51.8 °F - 48.2 °F 88% 29.82 in 10.0 mi North 11.5 mph 19.6 mph 0.01 in   Overcast
5:53 PM 51.1 °F - 48.0 °F 89% 29.82 in 10.0 mi NNW 15.0 mph 19.6 mph 0.01 in   Overcast
6:05 PM 50.0 °F - 46.4 °F 87% 29.83 in 10.0 mi North 11.5 mph 20.7 mph N/A   Overcast
6:53 PM 48.9 °F - 43.0 °F 80% 29.86 in 10.0 mi NNW 18.4 mph 25.3 mph N/A   Overcast
7:53 PM 46.0 °F 40.6 °F 37.9 °F 73% 29.88 in 10.0 mi NNW 11.5 mph - N/A   Clear
8:53 PM 45.0 °F 40.1 °F 37.9 °F 76% 29.90 in 10.0 mi NW 9.2 mph - N/A   Clear
9:53 PM 46.9 °F - 36.0 °F 66% 29.91 in 10.0 mi NW 11.5 mph 20.7 mph N/A   Overcast
10:53 PM 46.0 °F 41.0 °F 35.1 °F 66% 29.91 in 10.0 mi NW 10.4 mph - N/A   Overcast
11:53 PM 44.1 °F 38.1 °F 33.1 °F 65% 29.92 in 10.0 mi NNW 11.5 mph 17.3 mph N/A   Clear